Regional Weather Roundup
Issued by NWS

Home | Current Version | Previous Version | Text Only | Print | Product List | Glossary Off
Versions: 1 2 3 4 5 6 7 8 9 10 11 12 13 14 15 16 17 18 19 20 21 22 23 24 25 26 27

000
ASUS45 KBOU 202106
RWRCO

WEATHER ROUNDUP FOR COLORADO
NATIONAL WEATHER SERVICE DENVER/BOULDER CO
300 PM MDT SUN APR 20 2014

NOTE: "FAIR" INDICATES FEW OR NO CLOUDS BELOW 12000 FEET WITH NO
SIGNIFICANT WEATHER AND/OR OBSTRUCTIONS TO VISIBILITY.

COZ001>005-013-030-031-202200-
...NORTHWEST COLORADO...

CITY           SKY/WX    TMP DP  RH WIND       PRES   REMARKS
CRAIG          LGT RAIN  50  39  66 NW22G43   30.21R
HAYDEN         PTSUNNY   61  30  31 E3        30.17S
MEEKER         CLOUDY    65  29  25 N16       30.14F
MOUNT WERNER   CLOUDY    45  27  49 NW8       30.34S
STEAMBOAT SPGS PTSUNNY   59  28  30 NW15G24   30.16S
WALDEN         PTSUNNY   55  30  38 NW7       30.20F
$$

COZ006>008-011-202200-
...WEST CENTRAL VALLEYS...

CITY           SKY/WX    TMP DP  RH WIND       PRES   REMARKS
GRAND JUNCTION MOSUNNY   72  34  24 NW9       30.09F
MONTROSE       MOSUNNY   69  32  25 NW8       30.13S
EAGLE          MOSUNNY   64  34  32 VRB7      30.15F
RIFLE          MOSUNNY   71  31  22 W10       30.08F
DELTA          MOSUNNY   76  33  21 W15G22    30.07F
NUCLA            N/A     66  32  28 NE8       30.17F
$$

COZ017>023-064>068-202200-
...SOUTHWEST COLORADO...

CITY           SKY/WX    TMP DP  RH WIND       PRES   REMARKS
DURANGO        PTSUNNY   67  26  21 N6        30.09F
CORTEZ         PTSUNNY   70  27  20 N10G21    30.11F
PAGOSA SPRINGS CLOUDY    62  23  22 CALM      30.14F
TELLURIDE      PTSUNNY   54  21  28 CALM      30.25F
WOLF CREEK PAS MOSUNNY   37  23  56 N5        30.35S
$$

COZ009-010-012-014-032>034-037-058>063-202200-
...CENTRAL COLORADO...

CITY           SKY/WX    TMP DP  RH WIND       PRES   REMARKS
ASPEN          PTSUNNY   57  29  34 E9        30.18R
BUENA VISTA    PTSUNNY   59  30  34 S7        30.16F
COPPER MTN     CLOUDY    37  30  75 W16G25    30.38S
BERTHOUD PASS  PTSUNNY   30  21  69 NW25G31   30.37F WCI  16
COTTONWOOD PAS LGT RAIN  54  30  40 SE10G18   30.25F
GUNNISON       CLOUDY    61  25  25 CALM      30.18F
KREMMLING      PTSUNNY   61  25  25 N8        30.16F
LEADVILLE      LGT RAIN  44  27  51 N23G32    30.26S
MONARCH PASS   CLOUDY    37  28  70 CALM      30.45S
SALIDA         PTSUNNY   67  27  22 NE6G21    30.20F
SUNLIGHT       PTSUNNY   45  27  49 NW6       30.35S
WILKERSON PASS CLOUDY    36  32  87 NE7       30.35S
$$

COZ069>075-202200-
...SAN LUIS VALLEY/SANGRE DE CRISTO MOUNTAINS...

CITY           SKY/WX    TMP DP  RH WIND       PRES   REMARKS
ALAMOSA        MOSUNNY   63  28  26 N9        30.11F
LA VETA PASS   CLOUDY    43  34  70 CALM      30.25S
SAGUACHE       LGT RAIN  59  32  36 N18G25    30.15S
$$

COZ035-036-038>040-202200-
...NORTHERN COLORADO FRONT RANGE...

CITY           SKY/WX    TMP DP  RH WIND       PRES   REMARKS
DENVER INTL AP PTSUNNY   70  37  29 S5        30.03F
DMNS CITY PARK   N/A     71  33  24 N7        30.03F
AURORA         MOSUNNY   70  36  28 NE9       30.06F
FRONT RANGE AP NOT AVBL
ERIE MUNI ARPT MOSUNNY   71  36  26 N6        30.03S
BOULDER MUN AP PTSUNNY   70  34  26 E6        30.03S
CENTENNIAL     MOSUNNY   68  32  26 VRB3      30.06F
BROOMFIELD     PTSUNNY   70  36  28 VRB6      30.06F
FORT COLLINS   MOSUNNY   72  37  28 W8        30.03S
LONGMONT       PTSUNNY   71  32  23 W6        30.04S
$$

COZ041-046-047-076>085-087-088-202200-
...PIKES PEAK/PALMER DIVIDE AND SOUTHERN FOOTHILLS...

CITY           SKY/WX    TMP DP  RH WIND       PRES   REMARKS
COLO. SPRINGS  PTSUNNY   69  33  26 NE14G23   30.07F
A. F. ACADEMY  MOSUNNY   67  31  26 N14G21    30.08F
ELLICOTT       NOT AVBL
FALCON         MOSUNNY   64  31  29 N17G35    30.11F
FORT CARSON    PTSUNNY   69  35  28 NE14      30.04F
LIMON          MOSUNNY   70  34  26 N10G22    30.03F
MONUMENT HILL  MOSUNNY   63  32  31 N13G20    30.12F
TRINIDAD       CLOUDY    59  46  62 W8        30.08F
$$

COZ042>045-048>051-090-091-202200-
...NORTHEAST COLORADO...

CITY           SKY/WX    TMP DP  RH WIND       PRES   REMARKS
GREELEY ARPT   PTSUNNY   64  45  48 E14       30.02F
AKRON          MOSUNNY   73  35  25 NE8G18    30.00F
BURLINGTON     CLOUDY    72  47  40 NE14      29.98F
WRAY           CLOUDY    69  49  48 MISG      29.98F
STERLING       MOSUNNY   79  39  24 NW5       29.95F
HOLYOKE        CLOUDY    73  43  33 SE7       29.97F
FORT MORGAN    CLOUDY    68  35  29 N21       30.02R
$$

COZ086-089-092>099-202200-
...SOUTHEAST COLORADO...

CITY           SKY/WX    TMP DP  RH WIND       PRES   REMARKS
PUEBLO         CLOUDY    73  32  22 VRB7      30.00F
LA JUNTA       LGT RAIN  67  43  41 NW8       29.98S
LAMAR          LGT RAIN  67  49  52 VRB3      29.92F
SPRINGFIELD      N/A     69  45  41 N20G25    29.95F
$$



USA.gov is the U.S. government's official web portal to all federal, state and local government web resources and services.